CZ-3C DEB, 40818

Orbit data source: Space-Track

CZ-3C DEB, 40818 is space debris in HEO originally from a launch on Sun, 31 Oct 2010 UTC launched from the Xichang Space Center, China (XSC). Debris objects in space refer to the collection of defunct objects orbiting the Earth. Examples of debris include non-operational satellites, rocket bodies, and fragments generated from explosions, collisions, or faulty payload assembly.

Loading next visibility...
Identifier
40818, 2010-057AK
Orbit
HEO
Country
Flag of CNCN / PRC
Related business
Manufacturer
CALT
Mission
Spacecraft
Bus & Motor
Unknown
Mass
Unknown
Launch date (UTC)
2010-10-31 (15 years ago)
Launch vehicle
Unknown
Launch site
Xichang Space Center, China (XSC)
Object type
Payload
Rocket body
Debris
Shape & HBR
Unknown
Radar Cross Section
Small (<0.1 m²)

Expand to show TLE details & history
Last TLE update: 1 day ago

TLE from 1 day ago
0 CZ-3C DEB
1 40818U 10057AK  25241.56364335 -.00000134  00000-0  30721-3 0  9998
2 40818  20.0936 197.6875 7095804 338.8355   2.4576  2.25730383 86397
Epoch: 2025-08-29T13:31Z
TLE epoch observation values (Epoch: 2025-08-29T13:31:38.785Z)
Latitude
-0.00046°
Longitude
16.70881°
Altitude
943.283 km
Speed
9.625 km/s
True Right ascension
13h 10m 31s
True Declination
0° 00' 02"
Sunlit
Object was in daylight at epoch
Visualization orbit readout
Latitude
Unknown
Longitude
Unknown
Altitude
Unknown
Speed
Unknown
Apparent Right ascension
Unknown
Apparent Declination
Unknown
Sunlit
N/A
Visualization observer readout
Local Sidereal Time
16:49:51
Azimuth
Unknown
Elevation
Unknown
Doppler factor
Unknown
Orbital elements
Apogee altitude
35,595.148 km
Perigee altitude
752.188 km
Semi-major axis
24,551.805 km
Eccentricity
0.70958
Inclination
20.0936°
RAAN
197.6875°
Arg. of periapsis
338.8355°
True anomaly
20.17907°
Mean anomaly
2.4576°
Eccentric anomaly
8.38908°
Mean motion
0.56418 °/min
Orbital period
638.09 mins
BSTAR
0.00030721
Loading maneuver chart data...
Computing Atmospheric mass density...
Loading historical data...
Loading historical data...
Loading historical data...
Loading historical data...
Loading historical data...
Loading historical data...
Loading historical data...

Documentation

Showing up to 5 results
|